Weather History for Eveleth, MN

Change the Weather History Date:

Thursday, July 18, 2013

  Actual Average Record
Temperature  
Mean Temperature 76 °F -  
Max Temperature 87 °F 76 °F 93 °F (2011)
Min Temperature 66 °F 52 °F 41 °F (2003)
Cooling Degree Days 12    
Growing Degree Days 26 (Base 50)    
Moisture  
Dew Point 68 °F    
Average Humidity 75    
Maximum Humidity 100    
Minimum Humidity 46    
Precipitation  
Precipitation 0.11 in - - ()
Sea Level Pressure  
Sea Level Pressure 29.87 in    
Wind  
Wind Speed 5 mph (SW)    
Max Wind Speed 22 mph    
Max Gust Speed 34 mph    
Visibility 8 miles    
Events Fog , Rain , Thunderstorm    
Averages and records for this station are not official NWS values.
T = Trace of Precipitation, MM = Missing Value Source: NWS Daily Summary

Daily Weather History Graph

Daily Weather History Graph

Search for Another Location

Airport:

Trip Planner

Search our weather history database for the weather conditions in past years. The results will help you decide how hot, cold, wet, or windy it might be!

Date:

Astronomy

Jul. 18, 2013 Rise Set
Actual Time 5:31 AM CDT 8:59 PM CDT
Civil Twilight 4:53 AM CDT 9:37 PM CDT
Nautical Twilight 4:03 AM CDT 10:28 PM CDT
Astronomical Twilight 2:56 AM CDT 11:34 PM CDT
Moon 4:55 PM CDT (7/18) 1:26 AM CDT (7/18)
Length of Visible Light 16h 44m
Length of Day
15h 28m
Waxing Gibbous, 77% of the Moon is Illuminated
Jul 18
Waxing Gibbous
Jul 22
Full
Jul 29
Last Quarter
Aug 6
New
Aug 14
First Quarter

Hourly Weather History & Observations

Time (CDT) Temp. Heat Index Dew Point Humidity Pressure Visibility Wind Dir Wind Speed Gust Speed Precip Events Conditions
12:08 AM 71.6 °F - 71.6 °F 100% 30.12 in 5.0 mi Calm Calm - N/A Rain Light Rain
12:28 AM 71.6 °F - 69.8 °F 94% 30.12 in 7.0 mi Calm Calm - N/A   Mostly Cloudy
12:48 AM 69.8 °F - 69.8 °F 100% 30.11 in 7.0 mi Calm Calm - N/A   Scattered Clouds
1:08 AM 69.8 °F - 68.0 °F 94% 30.11 in 10.0 mi Calm Calm - N/A   Clear
1:28 AM 68.0 °F - 68.0 °F 100% 30.11 in 5.0 mi Calm Calm - N/A   Scattered Clouds
1:48 AM 68.0 °F - 66.2 °F 94% 30.10 in 1.2 mi Calm Calm - N/A   Mostly Cloudy
2:08 AM 68.0 °F - 66.2 °F 94% 30.10 in 5.0 mi Calm Calm - N/A Rain Rain
2:28 AM 69.8 °F - 69.8 °F 100% 30.09 in 7.0 mi Calm Calm - N/A   Overcast
2:48 AM 69.8 °F - 69.8 °F 100% 30.08 in 5.0 mi Calm Calm - N/A   Overcast
3:08 AM 68.0 °F - 68.0 °F 100% 30.08 in 5.0 mi Calm Calm - N/A   Overcast
3:28 AM 68.0 °F - 68.0 °F 100% 30.06 in 5.0 mi Calm Calm - N/A   Overcast
3:48 AM 68.0 °F - 68.0 °F 100% 30.05 in 4.0 mi Calm Calm - N/A   Overcast
4:08 AM 68.0 °F - 68.0 °F 100% 30.05 in 0.8 mi Calm Calm - N/A   Overcast
4:28 AM 68.0 °F - 66.2 °F 94% 30.04 in 0.2 mi Calm Calm - N/A Fog Fog
4:48 AM 68.0 °F - 66.2 °F 94% 30.04 in 0.2 mi Calm Calm - N/A Fog Fog
5:08 AM 68.0 °F - 66.2 °F 94% 30.03 in 0.5 mi Calm Calm - N/A Fog Fog
5:28 AM 66.2 °F - 64.4 °F 94% 30.03 in 0.5 mi Calm Calm - N/A Fog Fog
5:48 AM 66.2 °F - 64.4 °F 94% 30.02 in 0.5 mi Calm Calm - N/A Fog Fog
6:08 AM 66.2 °F - 64.4 °F 94% 30.02 in 4.0 mi Calm Calm - N/A   Scattered Clouds
6:28 AM 66.2 °F - 64.4 °F 94% 30.01 in 5.0 mi Calm Calm - N/A   Scattered Clouds
6:48 AM 66.2 °F - 64.4 °F 94% 30.00 in 5.0 mi Calm Calm - N/A   Clear
7:08 AM 68.0 °F - 66.2 °F 94% 29.99 in 7.0 mi Calm Calm - N/A   Clear
7:28 AM 68.0 °F - 66.2 °F 94% 29.99 in 5.0 mi Calm Calm - N/A   Clear
7:48 AM 69.8 °F - 69.8 °F 100% 29.98 in 7.0 mi Calm Calm - N/A   Scattered Clouds
8:08 AM 71.6 °F - 71.6 °F 100% 29.96 in 10.0 mi SSE 3.5 mph - N/A   Clear
8:28 AM 71.6 °F - 71.6 °F 100% 29.96 in 10.0 mi SSW 5.8 mph - N/A Thunderstorm Scattered Clouds
8:48 AM 71.6 °F - 71.6 °F 100% 29.94 in 10.0 mi SSW 4.6 mph - N/A   Mostly Cloudy
9:08 AM 77.0 °F - 71.6 °F 83% 29.93 in 10.0 mi SSW 5.8 mph - N/A   Scattered Clouds
9:28 AM 77.0 °F - 71.6 °F 83% 29.92 in 10.0 mi SSW 8.1 mph - N/A   Scattered Clouds
9:48 AM 77.0 °F - 69.8 °F 78% 29.92 in 10.0 mi SSW 8.1 mph - N/A   Mostly Cloudy
10:08 AM 78.8 °F - 71.6 °F 78% 29.91 in 10.0 mi SW 10.4 mph - N/A   Mostly Cloudy
10:28 AM 80.6 °F 84.6 °F 71.6 °F 74% 29.90 in 10.0 mi SSW 8.1 mph - N/A   Mostly Cloudy
10:48 AM 80.6 °F 84.6 °F 71.6 °F 74% 29.89 in 10.0 mi SSW 6.9 mph - N/A   Scattered Clouds
11:08 AM 80.6 °F 83.9 °F 69.8 °F 70% 29.88 in 10.0 mi WSW 11.5 mph 16.1 mph N/A   Mostly Cloudy
11:28 AM 82.4 °F 87.2 °F 71.6 °F 70% 29.88 in 10.0 mi WSW 4.6 mph - N/A   Overcast
11:48 AM 82.4 °F 86.3 °F 69.8 °F 66% 29.87 in 10.0 mi SW 9.2 mph - N/A   Overcast
12:09 PM 82.4 °F 86.3 °F 69.8 °F 66% 29.86 in 10.0 mi SSW 11.5 mph - N/A   Overcast
12:28 PM 82.4 °F 86.3 °F 69.8 °F 66% 29.85 in 10.0 mi SW 10.4 mph - N/A   Mostly Cloudy
12:48 PM 86.0 °F 90.4 °F 69.8 °F 58% 29.85 in 10.0 mi SW 15.0 mph 19.6 mph N/A   Scattered Clouds
1:08 PM 86.0 °F 90.4 °F 69.8 °F 58% 29.84 in 10.0 mi SW 16.1 mph 19.6 mph N/A   Scattered Clouds
1:28 PM 86.0 °F 90.4 °F 69.8 °F 58% 29.83 in 10.0 mi SSW 12.7 mph 21.9 mph N/A   Scattered Clouds
1:48 PM 86.0 °F 89.4 °F 68.0 °F 55% 29.82 in 10.0 mi SW 19.6 mph 27.6 mph N/A   Scattered Clouds
2:09 PM 86.0 °F 89.4 °F 68.0 °F 55% 29.80 in 10.0 mi WSW 16.1 mph 24.2 mph N/A   Clear
2:28 PM 86.0 °F 89.4 °F 68.0 °F 55% 29.79 in 10.0 mi WSW 17.3 mph 23.0 mph N/A   Clear
2:48 PM 86.0 °F 90.4 °F 69.8 °F 58% 29.78 in 10.0 mi SW 15.0 mph 20.7 mph N/A   Clear
3:08 PM 87.8 °F 91.4 °F 68.0 °F 52% 29.78 in 10.0 mi SW 20.7 mph 26.5 mph N/A   Clear
3:28 PM 87.8 °F 91.4 °F 68.0 °F 52% 29.78 in 10.0 mi SW 17.3 mph 29.9 mph N/A   Clear
3:49 PM 87.8 °F 91.4 °F 68.0 °F 52% 29.77 in 10.0 mi SW 15.0 mph 21.9 mph N/A   Scattered Clouds
4:08 PM 87.8 °F 91.4 °F 68.0 °F 52% 29.76 in 10.0 mi SW 16.1 mph 23.0 mph N/A   Scattered Clouds
4:28 PM 87.8 °F 91.4 °F 68.0 °F 52% 29.76 in 10.0 mi SW 12.7 mph 19.6 mph N/A   Scattered Clouds
4:49 PM 87.8 °F 91.4 °F 68.0 °F 52% 29.75 in 10.0 mi SW 13.8 mph 20.7 mph N/A   Scattered Clouds
5:08 PM 87.8 °F 89.4 °F 64.4 °F 46% 29.74 in 10.0 mi WSW 20.7 mph 28.8 mph N/A   Scattered Clouds
5:28 PM 87.8 °F 89.4 °F 64.4 °F 46% 29.72 in 10.0 mi SW 17.3 mph 27.6 mph N/A   Clear
5:49 PM 86.0 °F 87.3 °F 64.4 °F 48% 29.71 in 10.0 mi WSW 19.6 mph 29.9 mph N/A   Clear
6:08 PM 86.0 °F 87.3 °F 64.4 °F 48% 29.71 in 10.0 mi SW 21.9 mph 31.1 mph N/A   Clear
6:28 PM 86.0 °F 87.3 °F 64.4 °F 48% 29.71 in 10.0 mi WSW 16.1 mph 24.2 mph N/A   Clear
6:49 PM 86.0 °F 87.3 °F 64.4 °F 48% 29.71 in 10.0 mi SW 18.4 mph 34.5 mph 0.01 in   Clear
7:08 PM 86.0 °F 88.2 °F 66.2 °F 51% 29.71 in 10.0 mi SW 16.1 mph 24.2 mph N/A   Clear
7:28 PM 82.4 °F 84.6 °F 66.2 °F 58% 29.71 in 10.0 mi WSW 16.1 mph 24.2 mph N/A   Scattered Clouds
7:49 PM 82.4 °F 84.6 °F 66.2 °F 58% 29.69 in 10.0 mi WSW 16.1 mph 25.3 mph N/A   Scattered Clouds
8:08 PM 82.4 °F 84.6 °F 66.2 °F 58% 29.69 in 10.0 mi WSW 10.4 mph 17.3 mph N/A   Scattered Clouds
8:28 PM 82.4 °F 85.4 °F 68.0 °F 62% 29.69 in 10.0 mi SW 10.4 mph 16.1 mph N/A   Mostly Cloudy
8:49 PM 82.4 °F 85.4 °F 68.0 °F 62% 29.69 in 10.0 mi SW 8.1 mph - N/A   Overcast
9:08 PM 80.6 °F 83.2 °F 68.0 °F 65% 29.68 in 10.0 mi SW 6.9 mph - N/A   Overcast
9:28 PM 80.6 °F 83.2 °F 68.0 °F 65% 29.68 in 10.0 mi SW 9.2 mph - N/A   Mostly Cloudy
9:49 PM 80.6 °F 83.2 °F 68.0 °F 65% 29.67 in 10.0 mi SSW 10.4 mph - N/A Thunderstorm Mostly Cloudy
10:08 PM 80.6 °F 83.2 °F 68.0 °F 65% 29.66 in 10.0 mi SW 8.1 mph - N/A   Mostly Cloudy
10:28 PM 80.6 °F 83.2 °F 68.0 °F 65% 29.65 in 10.0 mi West 8.1 mph - N/A   Overcast
10:48 PM 80.6 °F 83.9 °F 69.8 °F 70% 29.65 in 10.0 mi West 4.6 mph - N/A   Overcast
11:08 PM 66.2 °F - 62.6 °F 88% 29.70 in 5.0 mi WNW 13.8 mph 27.6 mph 0.06 in Rain , Thunderstorm Heavy Thunderstorms and Rain
11:28 PM 68.0 °F - 64.4 °F 88% 29.70 in 10.0 mi West 6.9 mph - 0.10 in Thunderstorm Scattered Clouds
11:48 PM 68.0 °F - 64.4 °F 88% 29.71 in 10.0 mi SSW 4.6 mph - 0.10 in   Scattered Clouds